Regional Weather Roundup
Issued by NWS

Home | Current Version | Previous Version | Text Only | Print | Product List | Glossary On
Versions: 1 2 3 4 5 6 7 8 9 10 11 12 13 14 15 16 17 18 19 20 21 22 23 24 25 26 27 28 29 30 31 32 33 34 35 36 37 38 39 40 41 42 43 44 45 46 47 48 49 50
000
ASUS45 KTFX 032210
RWRMT
MONTANA REGIONAL WEATHER ROUNDUP
NATIONAL WEATHER SERVICE GREAT FALLS MT
300 PM MST SAT DEC 03 2016

NOTE: "FAIR" INDICATES FEW OR NO CLOUDS BELOW 12000 FEET WITH NO
SIGNIFICANT WEATHER AND/OR OBSTRUCTIONS TO VISIBILITY.

MTZ001>007-043-032300-
WEST OF THE DIVIDE

CITY           SKY/WX    TMP DP  RH WIND       PRES   REMARKS
KALISPELL      LGT SNOW  35  32  88 SE6       30.02S FOG     WCI  30
MISSOULA       CLOUDY    36  32  85 W6        30.10R WCI  31
BUTTE          CLOUDY    36  15  42 NW15G26   29.98R WCI  27
MULLAN PASS    LGT SNOW  25  22  88 W3        30.00S VSB 1
ANACONDA         N/A     37  14  38 W17G31    29.99R WCI  28
DEER LODGE       N/A     37  21  52 NW14G20   30.03R WCI  29
EUREKA           N/A     43  21  42 SW6       30.00S
HAMILTON         N/A     39  25  56 SE8       30.08S
LIBBY            N/A     41  25  52 NW7       30.02F
PLAINS           N/A     40  29  65 NW6       30.07
RONAN            N/A     37  31  79 CALM      30.10S
$$

MTZ008-052>055-032300-
SOUTHWEST MONTANA

CITY           SKY/WX    TMP DP  RH WIND       PRES   REMARKS
BOZEMAN        CLOUDY    40  21  46 W16       29.97S
DILLON         CLOUDY    37  14  38 W25       30.00S WCI  25
W YELLOWSTONE  CLOUDY    19  18  93 SW16      30.07R FOG     WCI   5
ENNIS          CLOUDY    34  19  55 S10       30.07F WCI  26
THREE FORKS      N/A     44  44 100 W12       29.98S
$$

MTZ009-010-012-014-046-048-049-054-032300-
EAST SLOPES AND CENTRAL MONTANA

CITY           SKY/WX    TMP DP  RH WIND       PRES   REMARKS
CUT BANK       MOSUNNY   37  20  50 W16       29.87R WCI  28
GREAT FALLS    SUNNY     40  23  50 W15       29.89S
MALMSTROM AFB  SUNNY     42  20  42 W16G24    29.89S
HELENA         PTSUNNY   42  18  37 W12G23    29.97S
AUGUSTA          N/A     37  15  41 W21G31    29.89S WCI  26
BOWMANS CRNR     N/A     38  19  45 W17G25    29.89R WCI  29
CHOTEAU          N/A     39  18  41 W21G28    29.91R WCI  29
CONRAD           N/A     41  21  44 W18       29.91R
FAIRFIELD        N/A     39  16  38 W16       29.89R WCI  30
POWER            N/A     41  15  35 W22G30    29.87S
RAYNESFORD       N/A     39  22  50 W20G28    29.88S WCI  29
ULM              N/A     41  23  48 W14       29.91R
$$

MTZ011-013-016-021-045-047-050-051-032300-
NORTH CENTRAL MONTANA

CITY           SKY/WX    TMP DP  RH WIND       PRES   REMARKS
HAVRE          PTCLDY    46  21  37 NW17G24   29.82R
LEWISTOWN      MOSUNNY   39  21  48 W22G30    29.86S WCI  29
N BAR RANCH      N/A     39  16  38 NW28G37   29.86S WCI  28
CHINOOK          N/A     46  21  36 NW16G25   29.80S
DENTON           N/A     42  17  37 W31G53    29.83R
GEYSER           N/A     40  20  46 W28G36    29.87R
GRASS RANGE    PTSUNNY   39  22  48 W17G26    29.82R WCI  30
JUDITH GAP       N/A     37  17  44 NW21G32   29.86F WCI  26
ROY            PTSUNNY   42  20  42 MISG      29.81R
STANFORD         N/A     38  18  44 W18G29    29.87R WCI  28
WINIFRED       PTSUNNY   41  19  41 MISG      29.84R
$$

MTZ017>020-022>027-061-062-032300-
NORTHEAST MONTANA

CITY           SKY/WX    TMP DP  RH WIND       PRES   REMARKS
GLASGOW        CLOUDY    36  33  89 W17       29.76S WCI  26
JORDAN           N/A     42  26  53 NW20G31   29.80R
SIDNEY         CLOUDY    34  28  79 SW9       29.76S WCI  27
WOLF POINT     CLOUDY    39  32  76 W14       29.76R WCI  31
PLENTYWOOD       N/A     34  34 100 SW7       29.71S WCI  28
POPLAR           N/A     37  28  70 W10       29.75R WCI  30
SCOBEY           N/A     35  28  76 SW8       29.70R WCI  28
$$

MTZ028>42-056>058-032300-
SOUTHCENTRAL AND SOUTHEAST MONTANA

CITY           SKY/WX    TMP DP  RH WIND       PRES   REMARKS
BAKER          PTCLDY    35  24  64 W15       29.80S WCI  25
BILLINGS       PTSUNNY   43  16  33 NW20G30   29.89R
LIVINGSTON     CLOUDY    36  19  50 SW24G30   29.93S WCI  24
MILES CITY     CLOUDY    45  21  38 NW31G37   29.81R
BIG TIMBER     MOSUNNY   36  19  51 W26G33    29.93F WCI  23
EKALAKA          N/A     35  23  62 SW14      29.81S WCI  26
FORSYTH          N/A     45  25  45 W12       29.84R
HARLOWTON      PTSUNNY   39  17  41 W25G41    29.89S WCI  28
LAUREL           N/A     45  14  28 W20       29.90R
ROUNDUP          N/A     43  12  28 W15       29.80R
$$

REGIONAL REPORTS...DAKOTAS

CITY           SKY/WX    TMP DP  RH WIND       PRES   REMARKS
WILLISTON      CLOUDY    33  27  78 SW10      29.75R WCI  25
MINOT          MOCLDY    28  23  81 S12       29.79S WCI  18
DICKINSON      CLOUDY    30  26  85 SW10      29.77S WCI  21
BEACH          CLOUDY    36  27  69 SW13      29.80S WCI  27
CROSBY         MIX PCPN  30  30 100 S13       29.74R WCI  20
TIOGA          CLOUDY    28  28 100 S14       29.75S WCI  17
WATFORD CITY   LGT SNOW  32  28  86 SW13      29.77R WCI  22
BISMARCK       CLEAR     27  24  89 S8        29.87F WCI  19
GRAND FORKS    CLOUDY    31  24  75 SE20G25   30.03F WCI  19
FARGO          CLOUDY    33  25  72 S17G31    30.05F WCI  22
BUFFALO SD       N/A     38  27  64 W13       29.77R WCI  30
RAPID CITY     CLOUDY    41  23  48 NW3       29.88S
$$

REGIONAL REPORTS...WYOMING/IDAHO/WASHINGTON

CITY           SKY/WX    TMP DP  RH WIND       PRES   REMARKS
GILLETTE       MOSUNNY   39  23  52 NW14      29.89R WCI  31
SHERIDAN       CLOUDY    42  17  36 W14G20    29.90R
BUFFALO WY     CLOUDY    40  13  33 SE3       29.90R
CODY           SUNNY     37   8  30 W17G32    29.94  WCI  27
YELLOWSTONE LA   N/A     17  12  80 VRB6      30.05R WCI   9
IDAHO FALLS    CLOUDY    31  21  66 S12       30.17F WCI  22
SALMON         CLOUDY    36  25  64 S5        30.11S
BOISE          PTSUNNY   44  28  53 W3        30.23F
SPOKANE        CLOUDY    40  32  73 SW20      30.13R
$$

REGIONAL REPORTS...ALBERTA

CITY           SKY/WX    TMP DP  RH WIND       PRES   REMARKS
EDMONTON       CLEAR     36  21  55 SW8       29.68R WCI  29
CALGARY        MOCLDY    37   7  28 W9G17     29.75F WCI  31
LETHBRIDGE     MOCLDY    43  18  36 W22G30    29.82S
MEDICINE HAT   PTCLDY    43  30  61 W10       29.81R
WATERTON GATE    N/A     36  16  44 W9          N/A  WCI  29
CARDSTON         N/A     39  16  38 W15G24      N/A  WCI  31
MILK RIVER       N/A     41  19  42 W23G30      N/A
ONEFOUR          N/A     39  21  48 NW15        N/A  WCI  31
$$

REGIONAL REPORTS...SASKATCHEWAN

CITY           SKY/WX    TMP DP  RH WIND       PRES   REMARKS
SWIFT CURRENT  LGT SNOW  30  30 100 NW10G18   29.69R VSB 3/4 WCI  21
REGINA         MOCLDY    30  28  93 W16       29.65R WCI  19
SASKATOON      CLOUDY    27  23  86 N9        29.72R WCI  17
CYPRESS HILLS    N/A     30  28  93 NW9G18      N/A  WCI  22
VAL MARIE        N/A     39  30  70 NW18G25     N/A  WCI  30
ROCKGLEN         N/A     32  32 100 W13G18      N/A  WCI  22
ASSINIBOIA       N/A     39  19  45 W5          N/A
$$



USA.gov is the U.S. government's official web portal to all federal, state and local government web resources and services.